Index of /chromium/src/third_party/ffmpeg/tests/ref/vsynth/
../
vsynth1-amv 27-Aug-2026 18:43 249
vsynth1-asv1 27-Aug-2026 18:43 252
vsynth1-asv2 27-Aug-2026 18:43 252
vsynth1-avui 27-Aug-2026 18:43 253
vsynth1-bpp1 27-Aug-2026 18:43 251
vsynth1-bpp15 27-Aug-2026 18:43 256
vsynth1-cinepak 27-Aug-2026 18:43 260
vsynth1-cljr 27-Aug-2026 18:43 252
vsynth1-dnxhd-1080i 27-Aug-2026 18:43 273
vsynth1-dnxhd-1080i-10bit 27-Aug-2026 18:43 291
vsynth1-dnxhd-1080i-colr 27-Aug-2026 18:43 288
vsynth1-dnxhd-2k-hr-hq 27-Aug-2026 18:43 286
vsynth1-dnxhd-4k-hr-lb 27-Aug-2026 18:43 286
vsynth1-dnxhd-720p 27-Aug-2026 18:43 274
vsynth1-dnxhd-720p-10bit 27-Aug-2026 18:43 292
vsynth1-dnxhd-720p-hr-lb 27-Aug-2026 18:43 291
vsynth1-dnxhd-720p-rd 27-Aug-2026 18:43 283
vsynth1-dnxhd-edge1-hr 27-Aug-2026 18:43 284
vsynth1-dnxhd-edge2-hr 27-Aug-2026 18:43 284
vsynth1-dnxhd-edge3-hr 27-Aug-2026 18:43 284
vsynth1-dnxhd-hr-hq-mov 27-Aug-2026 18:43 285
vsynth1-dnxhd-hr-lb-mov 27-Aug-2026 18:43 285
vsynth1-dnxhd-hr-sq-mov 27-Aug-2026 18:43 285
vsynth1-dnxhd-uhd-hr-sq 27-Aug-2026 18:43 290
vsynth1-dv 27-Aug-2026 18:43 244
vsynth1-dv-411 27-Aug-2026 18:43 256
vsynth1-dv-50 27-Aug-2026 18:43 254
vsynth1-dv-fhd 27-Aug-2026 18:43 257
vsynth1-dv-hd 27-Aug-2026 18:43 254
vsynth1-ffv1 27-Aug-2026 18:43 252
vsynth1-ffv1-2pass 27-Aug-2026 18:43 270
vsynth1-ffv1-2pass10 27-Aug-2026 18:43 276
vsynth1-ffv1-v0 27-Aug-2026 18:43 261
vsynth1-ffv1-v2 27-Aug-2026 18:43 261
vsynth1-ffv1-v3-bgr0 27-Aug-2026 18:43 276
vsynth1-ffv1-v3-rgb48 27-Aug-2026 18:43 280
vsynth1-ffv1-v3-yuv420p 27-Aug-2026 18:43 285
vsynth1-ffv1-v3-yuv422p10 27-Aug-2026 18:43 291
vsynth1-ffv1-v3-yuv444p16 27-Aug-2026 18:43 291
vsynth1-ffvhuff 27-Aug-2026 18:43 261
vsynth1-ffvhuff420p12 27-Aug-2026 18:43 280
vsynth1-ffvhuff422p10left 27-Aug-2026 18:43 292
vsynth1-ffvhuff444 27-Aug-2026 18:43 271
vsynth1-ffvhuff444p16 27-Aug-2026 18:43 280
vsynth1-flashsv 27-Aug-2026 18:43 262
vsynth1-flashsv2 27-Aug-2026 18:43 264
vsynth1-flv 27-Aug-2026 18:43 248
vsynth1-h261 27-Aug-2026 18:43 251
vsynth1-h261-trellis 27-Aug-2026 18:43 275
vsynth1-h263 27-Aug-2026 18:43 251
vsynth1-h263-obmc 27-Aug-2026 18:43 266
vsynth1-h263p 27-Aug-2026 18:43 255
vsynth1-huffyuv 27-Aug-2026 18:43 261
vsynth1-huffyuvbgr24 27-Aug-2026 18:43 277
vsynth1-huffyuvbgra 27-Aug-2026 18:43 274
vsynth1-jpeg2000 27-Aug-2026 18:43 264
vsynth1-jpeg2000-97 27-Aug-2026 18:43 273
vsynth1-jpeg2000-gbrp12 27-Aug-2026 18:43 285
vsynth1-jpeg2000-yuva444p16 27-Aug-2026 18:43 298
vsynth1-jpegls 27-Aug-2026 18:43 258
vsynth1-ljpeg 27-Aug-2026 18:43 255
vsynth1-magicyuv 27-Aug-2026 18:43 264
vsynth1-mjpeg 27-Aug-2026 18:43 255
vsynth1-mjpeg-422 27-Aug-2026 18:43 267
vsynth1-mjpeg-444 27-Aug-2026 18:43 267
vsynth1-mjpeg-huffman 27-Aug-2026 18:43 279
vsynth1-mjpeg-trell 27-Aug-2026 18:43 273
vsynth1-mjpeg-trell-huffman 27-Aug-2026 18:43 297
vsynth1-mov-bgr24 27-Aug-2026 18:43 268
vsynth1-mov-bpp15 27-Aug-2026 18:43 268
vsynth1-mov-bpp16 27-Aug-2026 18:43 268
vsynth1-mpeg1 27-Aug-2026 18:43 268
vsynth1-mpeg1b 27-Aug-2026 18:43 272
vsynth1-mpeg2 27-Aug-2026 18:43 268
vsynth1-mpeg2-422 27-Aug-2026 18:43 280
vsynth1-mpeg2-idct-int 27-Aug-2026 18:43 295
vsynth1-mpeg2-ilace 27-Aug-2026 18:43 286
vsynth1-mpeg2-ivlc-qprd 27-Aug-2026 18:43 298
vsynth1-mpeg2-thread 27-Aug-2026 18:43 289
vsynth1-mpeg2-thread-ivlc 27-Aug-2026 18:43 304
vsynth1-mpeg4 27-Aug-2026 18:43 254
vsynth1-mpeg4-adap 27-Aug-2026 18:43 269
vsynth1-mpeg4-adv 27-Aug-2026 18:43 266
vsynth1-mpeg4-error 27-Aug-2026 18:43 272
vsynth1-mpeg4-nr 27-Aug-2026 18:43 263
vsynth1-mpeg4-nsse 27-Aug-2026 18:43 269
vsynth1-mpeg4-qpel 27-Aug-2026 18:43 269
vsynth1-mpeg4-qprd 27-Aug-2026 18:43 269
vsynth1-mpeg4-rc 27-Aug-2026 18:43 263
vsynth1-mpeg4-thread 27-Aug-2026 18:43 275
vsynth1-mpng 27-Aug-2026 18:43 252
vsynth1-msmpeg4 27-Aug-2026 18:43 260
vsynth1-msmpeg4v2 27-Aug-2026 18:43 266
vsynth1-msrle 27-Aug-2026 18:43 255
vsynth1-msvideo1 27-Aug-2026 18:43 264
vsynth1-prores 27-Aug-2026 18:43 258
vsynth1-prores_444 27-Aug-2026 18:43 270
vsynth1-prores_444_int 27-Aug-2026 18:43 282
vsynth1-prores_int 27-Aug-2026 18:43 270
vsynth1-prores_ks 27-Aug-2026 18:43 267
vsynth1-qtrle 27-Aug-2026 18:43 256
vsynth1-qtrlegray 27-Aug-2026 18:43 267
vsynth1-r210 27-Aug-2026 18:43 253
vsynth1-rgb 27-Aug-2026 18:43 250
vsynth1-roqvideo 27-Aug-2026 18:43 263
vsynth1-rpza 27-Aug-2026 18:43 253
vsynth1-rv10 27-Aug-2026 18:43 249
vsynth1-rv20 27-Aug-2026 18:43 249
vsynth1-smc 27-Aug-2026 18:43 249
vsynth1-snow 27-Aug-2026 18:43 251
vsynth1-snow-hpel 27-Aug-2026 18:43 266
vsynth1-snow-ll 27-Aug-2026 18:43 261
vsynth1-speedhq-420p 27-Aug-2026 18:43 275
vsynth1-speedhq-422p 27-Aug-2026 18:43 276
vsynth1-speedhq-444p 27-Aug-2026 18:43 276
vsynth1-svq1 27-Aug-2026 18:43 252
vsynth1-v210 27-Aug-2026 18:43 253
vsynth1-v210-10 27-Aug-2026 18:43 262
vsynth1-v308 27-Aug-2026 18:43 253
vsynth1-v408 27-Aug-2026 18:43 253
vsynth1-v410 27-Aug-2026 18:43 253
vsynth1-vc2-420p 27-Aug-2026 18:43 264
vsynth1-vc2-420p10 27-Aug-2026 18:43 270
vsynth1-vc2-420p12 27-Aug-2026 18:43 270
vsynth1-vc2-422p 27-Aug-2026 18:43 264
vsynth1-vc2-422p10 27-Aug-2026 18:43 270
vsynth1-vc2-422p12 27-Aug-2026 18:43 270
vsynth1-vc2-444p 27-Aug-2026 18:43 264
vsynth1-vc2-444p10 27-Aug-2026 18:43 270
vsynth1-vc2-444p12 27-Aug-2026 18:43 270
vsynth1-vc2-t5_3 27-Aug-2026 18:43 264
vsynth1-vc2-thaar 27-Aug-2026 18:43 267
vsynth1-wmv1 27-Aug-2026 18:43 251
vsynth1-wmv2 27-Aug-2026 18:43 251
vsynth1-xface 27-Aug-2026 18:43 253
vsynth1-y41p 27-Aug-2026 18:43 252
vsynth1-yuv 27-Aug-2026 18:43 249
vsynth1-yuv4 27-Aug-2026 18:43 252
vsynth1-zlib 27-Aug-2026 18:43 253
vsynth2-amv 27-Aug-2026 18:43 248
vsynth2-asv1 27-Aug-2026 18:43 251
vsynth2-asv2 27-Aug-2026 18:43 251
vsynth2-avui 27-Aug-2026 18:43 253
vsynth2-bpp1 27-Aug-2026 18:43 251
vsynth2-bpp15 27-Aug-2026 18:43 256
vsynth2-cinepak 27-Aug-2026 18:43 260
vsynth2-cljr 27-Aug-2026 18:43 252
vsynth2-dnxhd-1080i 27-Aug-2026 18:43 273
vsynth2-dnxhd-1080i-10bit 27-Aug-2026 18:43 291
vsynth2-dnxhd-1080i-colr 27-Aug-2026 18:43 288
vsynth2-dnxhd-2k-hr-hq 27-Aug-2026 18:43 286
vsynth2-dnxhd-4k-hr-lb 27-Aug-2026 18:43 286
vsynth2-dnxhd-720p 27-Aug-2026 18:43 274
vsynth2-dnxhd-720p-10bit 27-Aug-2026 18:43 292
vsynth2-dnxhd-720p-hr-lb 27-Aug-2026 18:43 291
vsynth2-dnxhd-720p-rd 27-Aug-2026 18:43 283
vsynth2-dnxhd-edge1-hr 27-Aug-2026 18:43 284
vsynth2-dnxhd-edge2-hr 27-Aug-2026 18:43 284
vsynth2-dnxhd-edge3-hr 27-Aug-2026 18:43 284
vsynth2-dnxhd-hr-hq-mov 27-Aug-2026 18:43 285
vsynth2-dnxhd-hr-lb-mov 27-Aug-2026 18:43 285
vsynth2-dnxhd-hr-sq-mov 27-Aug-2026 18:43 285
vsynth2-dnxhd-uhd-hr-sq 27-Aug-2026 18:43 290
vsynth2-dv 27-Aug-2026 18:43 244
vsynth2-dv-411 27-Aug-2026 18:43 256
vsynth2-dv-50 27-Aug-2026 18:43 254
vsynth2-dv-fhd 27-Aug-2026 18:43 257
vsynth2-dv-hd 27-Aug-2026 18:43 254
vsynth2-ffv1 27-Aug-2026 18:43 252
vsynth2-ffv1-2pass 27-Aug-2026 18:43 270
vsynth2-ffv1-2pass10 27-Aug-2026 18:43 276
vsynth2-ffv1-v0 27-Aug-2026 18:43 261
vsynth2-ffv1-v2 27-Aug-2026 18:43 261
vsynth2-ffv1-v3-bgr0 27-Aug-2026 18:43 276
vsynth2-ffv1-v3-rgb48 27-Aug-2026 18:43 280
vsynth2-ffv1-v3-yuv420p 27-Aug-2026 18:43 285
vsynth2-ffv1-v3-yuv422p10 27-Aug-2026 18:43 291
vsynth2-ffv1-v3-yuv444p16 27-Aug-2026 18:43 291
vsynth2-ffvhuff 27-Aug-2026 18:43 261
vsynth2-ffvhuff420p12 27-Aug-2026 18:43 279
vsynth2-ffvhuff422p10left 27-Aug-2026 18:43 291
vsynth2-ffvhuff444 27-Aug-2026 18:43 270
vsynth2-ffvhuff444p16 27-Aug-2026 18:43 280
vsynth2-flashsv 27-Aug-2026 18:43 262
vsynth2-flashsv2 27-Aug-2026 18:43 264
vsynth2-flv 27-Aug-2026 18:43 248
vsynth2-h261 27-Aug-2026 18:43 251
vsynth2-h261-trellis 27-Aug-2026 18:43 275
vsynth2-h263 27-Aug-2026 18:43 251
vsynth2-h263-obmc 27-Aug-2026 18:43 266
vsynth2-h263p 27-Aug-2026 18:43 255
vsynth2-huffyuv 27-Aug-2026 18:43 261
vsynth2-huffyuvbgr24 27-Aug-2026 18:43 276
vsynth2-huffyuvbgra 27-Aug-2026 18:43 274
vsynth2-jpeg2000 27-Aug-2026 18:43 264
vsynth2-jpeg2000-97 27-Aug-2026 18:43 273
vsynth2-jpeg2000-gbrp12 27-Aug-2026 18:43 285
vsynth2-jpeg2000-yuva444p16 27-Aug-2026 18:43 298
vsynth2-jpegls 27-Aug-2026 18:43 258
vsynth2-ljpeg 27-Aug-2026 18:43 255
vsynth2-magicyuv 27-Aug-2026 18:43 264
vsynth2-mjpeg 27-Aug-2026 18:43 254
vsynth2-mjpeg-422 27-Aug-2026 18:43 266
vsynth2-mjpeg-444 27-Aug-2026 18:43 267
vsynth2-mjpeg-huffman 27-Aug-2026 18:43 278
vsynth2-mjpeg-trell 27-Aug-2026 18:43 272
vsynth2-mjpeg-trell-huffman 27-Aug-2026 18:43 296
vsynth2-mov-bgr24 27-Aug-2026 18:43 268
vsynth2-mov-bpp15 27-Aug-2026 18:43 268
vsynth2-mov-bpp16 27-Aug-2026 18:43 268
vsynth2-mpeg1 27-Aug-2026 18:43 268
vsynth2-mpeg1b 27-Aug-2026 18:43 271
vsynth2-mpeg2 27-Aug-2026 18:43 268
vsynth2-mpeg2-422 27-Aug-2026 18:43 280
vsynth2-mpeg2-idct-int 27-Aug-2026 18:43 295
vsynth2-mpeg2-ilace 27-Aug-2026 18:43 286
vsynth2-mpeg2-ivlc-qprd 27-Aug-2026 18:43 298
vsynth2-mpeg2-thread 27-Aug-2026 18:43 289
vsynth2-mpeg2-thread-ivlc 27-Aug-2026 18:43 304
vsynth2-mpeg4 27-Aug-2026 18:43 254
vsynth2-mpeg4-adap 27-Aug-2026 18:43 269
vsynth2-mpeg4-adv 27-Aug-2026 18:43 266
vsynth2-mpeg4-error 27-Aug-2026 18:43 272
vsynth2-mpeg4-nr 27-Aug-2026 18:43 263
vsynth2-mpeg4-nsse 27-Aug-2026 18:43 269
vsynth2-mpeg4-qpel 27-Aug-2026 18:43 269
vsynth2-mpeg4-qprd 27-Aug-2026 18:43 269
vsynth2-mpeg4-rc 27-Aug-2026 18:43 263
vsynth2-mpeg4-thread 27-Aug-2026 18:43 275
vsynth2-mpng 27-Aug-2026 18:43 252
vsynth2-msmpeg4 27-Aug-2026 18:43 260
vsynth2-msmpeg4v2 27-Aug-2026 18:43 266
vsynth2-msrle 27-Aug-2026 18:43 255
vsynth2-msvideo1 27-Aug-2026 18:43 264
vsynth2-prores 27-Aug-2026 18:43 258
vsynth2-prores_444 27-Aug-2026 18:43 270
vsynth2-prores_444_int 27-Aug-2026 18:43 282
vsynth2-prores_int 27-Aug-2026 18:43 270
vsynth2-prores_ks 27-Aug-2026 18:43 267
vsynth2-qtrle 27-Aug-2026 18:43 256
vsynth2-qtrlegray 27-Aug-2026 18:43 267
vsynth2-r210 27-Aug-2026 18:43 253
vsynth2-rgb 27-Aug-2026 18:43 250
vsynth2-roqvideo 27-Aug-2026 18:43 262
vsynth2-rpza 27-Aug-2026 18:43 252
vsynth2-rv10 27-Aug-2026 18:43 249
vsynth2-rv20 27-Aug-2026 18:43 249
vsynth2-smc 27-Aug-2026 18:43 249
vsynth2-snow 27-Aug-2026 18:43 250
vsynth2-snow-hpel 27-Aug-2026 18:43 265
vsynth2-snow-ll 27-Aug-2026 18:43 261
vsynth2-speedhq-420p 27-Aug-2026 18:43 275
vsynth2-speedhq-422p 27-Aug-2026 18:43 275
vsynth2-speedhq-444p 27-Aug-2026 18:43 275
vsynth2-svq1 27-Aug-2026 18:43 251
vsynth2-v210 27-Aug-2026 18:43 253
vsynth2-v210-10 27-Aug-2026 18:43 262
vsynth2-v308 27-Aug-2026 18:43 253
vsynth2-v408 27-Aug-2026 18:43 253
vsynth2-v410 27-Aug-2026 18:43 253
vsynth2-vc2-420p 27-Aug-2026 18:43 263
vsynth2-vc2-420p10 27-Aug-2026 18:43 270
vsynth2-vc2-420p12 27-Aug-2026 18:43 270
vsynth2-vc2-422p 27-Aug-2026 18:43 264
vsynth2-vc2-422p10 27-Aug-2026 18:43 270
vsynth2-vc2-422p12 27-Aug-2026 18:43 270
vsynth2-vc2-444p 27-Aug-2026 18:43 264
vsynth2-vc2-444p10 27-Aug-2026 18:43 270
vsynth2-vc2-444p12 27-Aug-2026 18:43 270
vsynth2-vc2-t5_3 27-Aug-2026 18:43 264
vsynth2-vc2-thaar 27-Aug-2026 18:43 267
vsynth2-wmv1 27-Aug-2026 18:43 251
vsynth2-wmv2 27-Aug-2026 18:43 251
vsynth2-xface 27-Aug-2026 18:43 253
vsynth2-y41p 27-Aug-2026 18:43 252
vsynth2-yuv 27-Aug-2026 18:43 249
vsynth2-yuv4 27-Aug-2026 18:43 252
vsynth2-zlib 27-Aug-2026 18:43 253
vsynth3-amv 27-Aug-2026 18:43 247
vsynth3-asv1 27-Aug-2026 18:43 250
vsynth3-asv2 27-Aug-2026 18:43 250
vsynth3-bpp1 27-Aug-2026 18:43 250
vsynth3-bpp15 27-Aug-2026 18:43 254
vsynth3-cljr 27-Aug-2026 18:43 250
vsynth3-dnxhd-1080i-10bit 27-Aug-2026 18:43 291
vsynth3-dnxhd-1080i-colr 27-Aug-2026 18:43 288
vsynth3-dnxhd-2k-hr-hq 27-Aug-2026 18:43 286
vsynth3-dnxhd-4k-hr-lb 27-Aug-2026 18:43 286
vsynth3-dnxhd-720p-hr-lb 27-Aug-2026 18:43 291
vsynth3-dnxhd-edge1-hr 27-Aug-2026 18:43 284
vsynth3-dnxhd-edge2-hr 27-Aug-2026 18:43 284
vsynth3-dnxhd-edge3-hr 27-Aug-2026 18:43 284
vsynth3-dnxhd-hr-hq-mov 27-Aug-2026 18:43 285
vsynth3-dnxhd-hr-lb-mov 27-Aug-2026 18:43 285
vsynth3-dnxhd-hr-sq-mov 27-Aug-2026 18:43 285
vsynth3-dnxhd-uhd-hr-sq 27-Aug-2026 18:43 290
vsynth3-dv-fhd 27-Aug-2026 18:43 257
vsynth3-dv-hd 27-Aug-2026 18:43 254
vsynth3-ffv1 27-Aug-2026 18:43 250
vsynth3-ffv1-2pass 27-Aug-2026 18:43 268
vsynth3-ffv1-2pass10 27-Aug-2026 18:43 274
vsynth3-ffv1-v0 27-Aug-2026 18:43 259
vsynth3-ffv1-v2 27-Aug-2026 18:43 259
vsynth3-ffv1-v3-bgr0 27-Aug-2026 18:43 275
vsynth3-ffv1-v3-rgb48 27-Aug-2026 18:43 278
vsynth3-ffv1-v3-yuv420p 27-Aug-2026 18:43 283
vsynth3-ffv1-v3-yuv422p10 27-Aug-2026 18:43 289
vsynth3-ffv1-v3-yuv444p16 27-Aug-2026 18:43 289
vsynth3-ffvhuff 27-Aug-2026 18:43 259
vsynth3-ffvhuff420p12 27-Aug-2026 18:43 278
vsynth3-ffvhuff422p10left 27-Aug-2026 18:43 290
vsynth3-ffvhuff444 27-Aug-2026 18:43 269
vsynth3-ffvhuff444p16 27-Aug-2026 18:43 278
vsynth3-flashsv 27-Aug-2026 18:43 260
vsynth3-flashsv2 27-Aug-2026 18:43 263
vsynth3-flv 27-Aug-2026 18:43 247
vsynth3-huffyuv 27-Aug-2026 18:43 260
vsynth3-huffyuvbgr24 27-Aug-2026 18:43 275
vsynth3-huffyuvbgra 27-Aug-2026 18:43 272
vsynth3-jpeg2000 27-Aug-2026 18:43 262
vsynth3-jpeg2000-97 27-Aug-2026 18:43 271
vsynth3-jpeg2000-gbrp12 27-Aug-2026 18:43 284
vsynth3-jpeg2000-yuva444p16 27-Aug-2026 18:43 296
vsynth3-jpegls 27-Aug-2026 18:43 257
vsynth3-ljpeg 27-Aug-2026 18:43 254
vsynth3-magicyuv 27-Aug-2026 18:43 263
vsynth3-mjpeg 27-Aug-2026 18:43 253
vsynth3-mjpeg-422 27-Aug-2026 18:43 265
vsynth3-mjpeg-444 27-Aug-2026 18:43 265
vsynth3-mjpeg-huffman 27-Aug-2026 18:43 277
vsynth3-mjpeg-trell 27-Aug-2026 18:43 271
vsynth3-mjpeg-trell-huffman 27-Aug-2026 18:43 295
vsynth3-mov-bgr24 27-Aug-2026 18:43 266
vsynth3-mov-bpp15 27-Aug-2026 18:43 266
vsynth3-mov-bpp16 27-Aug-2026 18:43 266
vsynth3-mpeg1 27-Aug-2026 18:43 267
vsynth3-mpeg1b 27-Aug-2026 18:43 270
vsynth3-mpeg2 27-Aug-2026 18:43 267
vsynth3-mpeg2-422 27-Aug-2026 18:43 279
vsynth3-mpeg2-idct-int 27-Aug-2026 18:43 294
vsynth3-mpeg2-ilace 27-Aug-2026 18:43 285
vsynth3-mpeg2-ivlc-qprd 27-Aug-2026 18:43 297
vsynth3-mpeg2-thread 27-Aug-2026 18:43 288
vsynth3-mpeg2-thread-ivlc 27-Aug-2026 18:43 303
vsynth3-mpeg4 27-Aug-2026 18:43 253
vsynth3-mpeg4-adap 27-Aug-2026 18:43 268
vsynth3-mpeg4-adv 27-Aug-2026 18:43 265
vsynth3-mpeg4-error 27-Aug-2026 18:43 271
vsynth3-mpeg4-nr 27-Aug-2026 18:43 262
vsynth3-mpeg4-nsse 27-Aug-2026 18:43 268
vsynth3-mpeg4-qpel 27-Aug-2026 18:43 268
vsynth3-mpeg4-qprd 27-Aug-2026 18:43 268
vsynth3-mpeg4-rc 27-Aug-2026 18:43 262
vsynth3-mpeg4-thread 27-Aug-2026 18:43 274
vsynth3-mpng 27-Aug-2026 18:43 251
vsynth3-msmpeg4 27-Aug-2026 18:43 259
vsynth3-msmpeg4v2 27-Aug-2026 18:43 265
vsynth3-msrle 27-Aug-2026 18:43 253
vsynth3-prores 27-Aug-2026 18:43 257
vsynth3-prores_444 27-Aug-2026 18:43 269
vsynth3-prores_444_int 27-Aug-2026 18:43 281
vsynth3-prores_int 27-Aug-2026 18:43 269
vsynth3-prores_ks 27-Aug-2026 18:43 265
vsynth3-qtrle 27-Aug-2026 18:43 254
vsynth3-r210 27-Aug-2026 18:43 251
vsynth3-rgb 27-Aug-2026 18:43 248
vsynth3-rpza 27-Aug-2026 18:43 251
vsynth3-smc 27-Aug-2026 18:43 247
vsynth3-svq1 27-Aug-2026 18:43 250
vsynth3-v210 27-Aug-2026 18:43 251
vsynth3-v210-10 27-Aug-2026 18:43 260
vsynth3-v308 27-Aug-2026 18:43 251
vsynth3-v408 27-Aug-2026 18:43 251
vsynth3-v410 27-Aug-2026 18:43 251
vsynth3-wmv1 27-Aug-2026 18:43 250
vsynth3-wmv2 27-Aug-2026 18:43 250
vsynth3-xface 27-Aug-2026 18:43 253
vsynth3-yuv 27-Aug-2026 18:43 247
vsynth3-yuv4 27-Aug-2026 18:43 250
vsynth3-zlib 27-Aug-2026 18:43 251
vsynth_lena-amv 27-Aug-2026 18:43 260
vsynth_lena-asv1 27-Aug-2026 18:43 263
vsynth_lena-asv2 27-Aug-2026 18:43 263
vsynth_lena-avui 27-Aug-2026 18:43 265
vsynth_lena-bpp1 27-Aug-2026 18:43 263
vsynth_lena-bpp15 27-Aug-2026 18:43 268
vsynth_lena-cinepak 27-Aug-2026 18:43 272
vsynth_lena-cljr 27-Aug-2026 18:43 264
vsynth_lena-dnxhd-1080i 27-Aug-2026 18:43 285
vsynth_lena-dnxhd-1080i-10bit 27-Aug-2026 18:43 303
vsynth_lena-dnxhd-1080i-colr 27-Aug-2026 18:43 300
vsynth_lena-dnxhd-2k-hr-hq 27-Aug-2026 18:43 298
vsynth_lena-dnxhd-4k-hr-lb 27-Aug-2026 18:43 298
vsynth_lena-dnxhd-720p 27-Aug-2026 18:43 286
vsynth_lena-dnxhd-720p-10bit 27-Aug-2026 18:43 304
vsynth_lena-dnxhd-720p-hr-lb 27-Aug-2026 18:43 303
vsynth_lena-dnxhd-720p-rd 27-Aug-2026 18:43 295
vsynth_lena-dnxhd-edge1-hr 27-Aug-2026 18:43 296
vsynth_lena-dnxhd-edge2-hr 27-Aug-2026 18:43 296
vsynth_lena-dnxhd-edge3-hr 27-Aug-2026 18:43 296
vsynth_lena-dnxhd-hr-hq-mov 27-Aug-2026 18:43 297
vsynth_lena-dnxhd-hr-lb-mov 27-Aug-2026 18:43 297
vsynth_lena-dnxhd-hr-sq-mov 27-Aug-2026 18:43 297
vsynth_lena-dnxhd-uhd-hr-sq 27-Aug-2026 18:43 302
vsynth_lena-dv 27-Aug-2026 18:43 256
vsynth_lena-dv-411 27-Aug-2026 18:43 268
vsynth_lena-dv-50 27-Aug-2026 18:43 266
vsynth_lena-dv-fhd 27-Aug-2026 18:43 269
vsynth_lena-dv-hd 27-Aug-2026 18:43 266
vsynth_lena-ffv1 27-Aug-2026 18:43 264
vsynth_lena-ffv1-2pass 27-Aug-2026 18:43 282
vsynth_lena-ffv1-2pass10 27-Aug-2026 18:43 288
vsynth_lena-ffv1-v0 27-Aug-2026 18:43 273
vsynth_lena-ffv1-v2 27-Aug-2026 18:43 273
vsynth_lena-ffv1-v3-bgr0 27-Aug-2026 18:43 288
vsynth_lena-ffv1-v3-rgb48 27-Aug-2026 18:43 292
vsynth_lena-ffv1-v3-yuv420p 27-Aug-2026 18:43 297
vsynth_lena-ffv1-v3-yuv422p10 27-Aug-2026 18:43 303
vsynth_lena-ffv1-v3-yuv444p16 27-Aug-2026 18:43 303
vsynth_lena-ffvhuff 27-Aug-2026 18:43 273
vsynth_lena-ffvhuff420p12 27-Aug-2026 18:43 291
vsynth_lena-ffvhuff422p10left 27-Aug-2026 18:43 304
vsynth_lena-ffvhuff444 27-Aug-2026 18:43 282
vsynth_lena-ffvhuff444p16 27-Aug-2026 18:43 292
vsynth_lena-flashsv 27-Aug-2026 18:43 274
vsynth_lena-flashsv2 27-Aug-2026 18:43 276
vsynth_lena-flv 27-Aug-2026 18:43 260
vsynth_lena-h261 27-Aug-2026 18:43 263
vsynth_lena-h261-trellis 27-Aug-2026 18:43 287
vsynth_lena-h263 27-Aug-2026 18:43 263
vsynth_lena-h263-obmc 27-Aug-2026 18:43 278
vsynth_lena-h263p 27-Aug-2026 18:43 266
vsynth_lena-huffyuv 27-Aug-2026 18:43 273
vsynth_lena-huffyuvbgr24 27-Aug-2026 18:43 288
vsynth_lena-huffyuvbgra 27-Aug-2026 18:43 286
vsynth_lena-jpeg2000 27-Aug-2026 18:43 276
vsynth_lena-jpeg2000-97 27-Aug-2026 18:43 285
vsynth_lena-jpeg2000-gbrp12 27-Aug-2026 18:43 297
vsynth_lena-jpeg2000-yuva444p16 27-Aug-2026 18:43 310
vsynth_lena-jpegls 27-Aug-2026 18:43 270
vsynth_lena-ljpeg 27-Aug-2026 18:43 267
vsynth_lena-magicyuv 27-Aug-2026 18:43 276
vsynth_lena-mjpeg 27-Aug-2026 18:43 266
vsynth_lena-mjpeg-422 27-Aug-2026 18:43 278
vsynth_lena-mjpeg-444 27-Aug-2026 18:43 278
vsynth_lena-mjpeg-huffman 27-Aug-2026 18:43 290
vsynth_lena-mjpeg-trell 27-Aug-2026 18:43 284
vsynth_lena-mjpeg-trell-huffman 27-Aug-2026 18:43 308
vsynth_lena-mov-bgr24 27-Aug-2026 18:43 280
vsynth_lena-mov-bpp15 27-Aug-2026 18:43 280
vsynth_lena-mov-bpp16 27-Aug-2026 18:43 280
vsynth_lena-mpeg1 27-Aug-2026 18:43 280
vsynth_lena-mpeg1b 27-Aug-2026 18:43 283
vsynth_lena-mpeg2 27-Aug-2026 18:43 280
vsynth_lena-mpeg2-422 27-Aug-2026 18:43 292
vsynth_lena-mpeg2-idct-int 27-Aug-2026 18:43 307
vsynth_lena-mpeg2-ilace 27-Aug-2026 18:43 298
vsynth_lena-mpeg2-ivlc-qprd 27-Aug-2026 18:43 310
vsynth_lena-mpeg2-thread 27-Aug-2026 18:43 301
vsynth_lena-mpeg2-thread-ivlc 27-Aug-2026 18:43 316
vsynth_lena-mpeg4 27-Aug-2026 18:43 266
vsynth_lena-mpeg4-adap 27-Aug-2026 18:43 281
vsynth_lena-mpeg4-adv 27-Aug-2026 18:43 278
vsynth_lena-mpeg4-error 27-Aug-2026 18:43 284
vsynth_lena-mpeg4-nr 27-Aug-2026 18:43 275
vsynth_lena-mpeg4-nsse 27-Aug-2026 18:43 281
vsynth_lena-mpeg4-qpel 27-Aug-2026 18:43 281
vsynth_lena-mpeg4-qprd 27-Aug-2026 18:43 281
vsynth_lena-mpeg4-rc 27-Aug-2026 18:43 275
vsynth_lena-mpeg4-thread 27-Aug-2026 18:43 287
vsynth_lena-mpng 27-Aug-2026 18:43 264
vsynth_lena-msmpeg4 27-Aug-2026 18:43 272
vsynth_lena-msmpeg4v2 27-Aug-2026 18:43 278
vsynth_lena-msrle 27-Aug-2026 18:43 267
vsynth_lena-msvideo1 27-Aug-2026 18:43 275
vsynth_lena-prores 27-Aug-2026 18:43 270
vsynth_lena-prores_444 27-Aug-2026 18:43 282
vsynth_lena-prores_444_int 27-Aug-2026 18:43 294
vsynth_lena-prores_int 27-Aug-2026 18:43 282
vsynth_lena-prores_ks 27-Aug-2026 18:43 279
vsynth_lena-qtrle 27-Aug-2026 18:43 268
vsynth_lena-qtrlegray 27-Aug-2026 18:43 279
vsynth_lena-r210 27-Aug-2026 18:43 265
vsynth_lena-rgb 27-Aug-2026 18:43 262
vsynth_lena-roqvideo 27-Aug-2026 18:43 274
vsynth_lena-rpza 27-Aug-2026 18:43 264
vsynth_lena-rv10 27-Aug-2026 18:43 261
vsynth_lena-rv20 27-Aug-2026 18:43 261
vsynth_lena-smc 27-Aug-2026 18:43 261
vsynth_lena-snow 27-Aug-2026 18:43 262
vsynth_lena-snow-hpel 27-Aug-2026 18:43 277
vsynth_lena-snow-ll 27-Aug-2026 18:43 273
vsynth_lena-speedhq-420p 27-Aug-2026 18:43 287
vsynth_lena-speedhq-422p 27-Aug-2026 18:43 287
vsynth_lena-speedhq-444p 27-Aug-2026 18:43 287
vsynth_lena-svq1 27-Aug-2026 18:43 263
vsynth_lena-v210 27-Aug-2026 18:43 265
vsynth_lena-v210-10 27-Aug-2026 18:43 274
vsynth_lena-v308 27-Aug-2026 18:43 265
vsynth_lena-v408 27-Aug-2026 18:43 265
vsynth_lena-v410 27-Aug-2026 18:43 265
vsynth_lena-vc2-420p 27-Aug-2026 18:43 275
vsynth_lena-vc2-420p10 27-Aug-2026 18:43 282
vsynth_lena-vc2-420p12 27-Aug-2026 18:43 282
vsynth_lena-vc2-422p 27-Aug-2026 18:43 276
vsynth_lena-vc2-422p10 27-Aug-2026 18:43 282
vsynth_lena-vc2-422p12 27-Aug-2026 18:43 282
vsynth_lena-vc2-444p 27-Aug-2026 18:43 276
vsynth_lena-vc2-444p10 27-Aug-2026 18:43 282
vsynth_lena-vc2-444p12 27-Aug-2026 18:43 282
vsynth_lena-vc2-t5_3 27-Aug-2026 18:43 276
vsynth_lena-vc2-thaar 27-Aug-2026 18:43 279
vsynth_lena-wmv1 27-Aug-2026 18:43 263
vsynth_lena-wmv2 27-Aug-2026 18:43 263
vsynth_lena-xface 27-Aug-2026 18:43 265
vsynth_lena-y41p 27-Aug-2026 18:43 264
vsynth_lena-yuv 27-Aug-2026 18:43 261
vsynth_lena-yuv4 27-Aug-2026 18:43 264
vsynth_lena-zlib 27-Aug-2026 18:43 265